Tracking 35274 objects as of 10-Sep-2026
HD Live streaming from Space Station
objects crossing your sky now

MIMAN

Track MIMAN now!
10-day predictions
MIMAN is classified as:


NORAD ID: 52900
Int'l Code: 2022-065G
Launch date: June 21, 2022
Source: South Korea (SKOR)
Launch site: Naro Space Center, South Korea (NSC)

Uplink (MHz):
Downlink (MHz): 436.500
Beacon (MHz):
Mode: 2k4/4k8* FSK
Call sign:
Status: Active

Your satellite tracking list
Your tracking list is empty




NASA's NSSDC Master Catalog

Two Line Element Set (TLE):
1 52900U 22065G   26252.85230276  .00000354  00000-0  80301-4 0  9999
2 52900  98.2387  34.9708 0008740 117.5277 242.6813 14.61921110222812
Source of the keplerian elements: AFSPC